TimeEST,TemperatureF,Dew PointF,Humidity,Sea Level PressureIn,VisibilityMPH,Wind Direction,Wind SpeedMPH,Gust SpeedMPH,PrecipitationIn,Events,Conditions,WindDirDegrees,DateUTC
12:15 AM,39.2,26.6,61,30.01,10.0,SE,15.0,26.5,N/A,,Mostly Cloudy,130,2012-12-28 05:15:00
12:35 AM,39.2,26.6,61,30.02,10.0,SE,12.7,23.0,N/A,,Mostly Cloudy,130,2012-12-28 05:35:00
12:55 AM,39.2,26.6,61,30.01,10.0,SE,13.8,24.2,N/A,,Mostly Cloudy,130,2012-12-28 05:55:00
1:18 AM,39.2,26.6,61,30.02,10.0,SE,13.8,20.7,N/A,,Mostly Cloudy,130,2012-12-28 06:18:00
1:35 AM,39.2,26.6,61,30.01,10.0,SE,17.3,23.0,N/A,,Mostly Cloudy,130,2012-12-28 06:35:00
1:55 AM,39.2,26.6,61,30.02,10.0,SE,13.8,24.2,N/A,,Mostly Cloudy,130,2012-12-28 06:55:00
2:15 AM,39.2,26.6,61,30.03,10.0,SE,19.6,24.2,N/A,,Mostly Cloudy,130,2012-12-28 07:15:00
2:35 AM,39.2,26.6,61,30.04,10.0,SE,9.2,21.9,N/A,,Overcast,130,2012-12-28 07:35:00
2:55 AM,39.2,26.6,61,30.05,10.0,SE,9.2,19.6,N/A,,Overcast,130,2012-12-28 07:55:00
3:15 AM,39.2,28.4,65,30.05,10.0,SE,9.2,-,N/A,,Overcast,130,2012-12-28 08:15:00
3:35 AM,39.2,28.4,65,30.05,10.0,SE,11.5,-,N/A,,Overcast,130,2012-12-28 08:35:00
4:15 AM,39.2,28.4,65,30.05,10.0,SE,9.2,18.4,N/A,,Overcast,130,2012-12-28 09:15:00
4:36 AM,39.2,28.4,65,30.05,10.0,SE,15.0,21.9,N/A,,Overcast,140,2012-12-28 09:36:00
4:55 AM,39.2,28.4,65,30.05,10.0,SE,11.5,17.3,N/A,,Overcast,130,2012-12-28 09:55:00
5:15 AM,39.2,28.4,65,30.06,10.0,SE,9.2,19.6,N/A,,Overcast,130,2012-12-28 10:15:00
5:35 AM,39.2,28.4,65,30.06,10.0,SE,9.2,17.3,N/A,,Overcast,130,2012-12-28 10:35:00
5:55 AM,39.2,28.4,65,30.06,10.0,SE,10.4,-,N/A,,Mostly Cloudy,130,2012-12-28 10:55:00
6:15 AM,39.2,28.4,65,30.07,10.0,SE,13.8,20.7,N/A,,Scattered Clouds,130,2012-12-28 11:15:00
6:35 AM,39.2,28.4,65,30.08,10.0,SE,8.1,18.4,N/A,,Clear,130,2012-12-28 11:35:00
6:56 AM,39.2,28.4,65,30.08,10.0,SE,5.8,-,N/A,,Scattered Clouds,130,2012-12-28 11:56:00
7:15 AM,39.2,26.6,61,30.09,10.0,SE,11.5,17.3,N/A,,Scattered Clouds,130,2012-12-28 12:15:00
7:35 AM,39.2,26.6,61,30.09,10.0,SE,10.4,16.1,N/A,,Clear,130,2012-12-28 12:35:00
7:55 AM,39.2,26.6,61,30.11,10.0,SE,6.9,-,N/A,,Clear,130,2012-12-28 12:55:00
8:15 AM,39.2,28.4,65,30.11,10.0,SE,6.9,-,N/A,,Clear,130,2012-12-28 13:15:00
8:35 AM,39.2,28.4,65,30.13,10.0,SE,11.5,-,N/A,,Clear,130,2012-12-28 13:35:00
9:15 AM,41.0,28.4,61,30.14,10.0,SE,8.1,-,N/A,,Scattered Clouds,130,2012-12-28 14:15:00
9:35 AM,41.0,28.4,61,30.14,10.0,SE,8.1,16.1,N/A,,Scattered Clouds,130,2012-12-28 14:35:00
9:55 AM,42.8,28.4,57,30.15,10.0,SE,8.1,-,N/A,,Scattered Clouds,130,2012-12-28 14:55:00
10:15 AM,42.8,30.2,61,30.14,10.0,SE,8.1,-,N/A,,Scattered Clouds,130,2012-12-28 15:15:00
10:55 AM,42.8,28.4,57,30.15,10.0,SE,6.9,16.1,N/A,,Scattered Clouds,130,2012-12-28 15:55:00
11:15 AM,42.8,28.4,57,30.13,10.0,ESE,8.1,-,N/A,,Scattered Clouds,120,2012-12-28 16:15:00
11:37 AM,42.8,28.4,57,30.12,10.0,SE,5.8,-,N/A,,Clear,130,2012-12-28 16:37:00
11:55 AM,42.8,28.4,57,30.12,10.0,ESE,6.9,-,N/A,,Clear,120,2012-12-28 16:55:00
12:15 PM,44.6,30.2,57,30.12,10.0,SE,8.1,-,N/A,,Clear,130,2012-12-28 17:15:00
12:36 PM,42.8,30.2,61,30.11,10.0,ESE,9.2,-,N/A,,Scattered Clouds,120,2012-12-28 17:36:00
12:55 PM,42.8,30.2,61,30.10,10.0,ESE,6.9,-,N/A,,Scattered Clouds,120,2012-12-28 17:55:00
1:15 PM,42.8,30.2,61,30.09,10.0,ESE,8.1,-,N/A,,Scattered Clouds,110,2012-12-28 18:15:00
1:35 PM,42.8,30.2,61,30.09,10.0,ESE,6.9,-,N/A,,Scattered Clouds,120,2012-12-28 18:35:00
1:55 PM,42.8,30.2,61,30.10,10.0,ESE,6.9,-,N/A,,Clear,120,2012-12-28 18:55:00
2:15 PM,42.8,30.2,61,30.09,10.0,ESE,8.1,-,N/A,,Clear,120,2012-12-28 19:15:00
2:35 PM,42.8,30.2,61,30.10,10.0,ESE,9.2,-,N/A,,Clear,120,2012-12-28 19:35:00
2:55 PM,42.8,30.2,61,30.10,10.0,ESE,6.9,-,N/A,,Clear,120,2012-12-28 19:55:00
3:15 PM,42.8,30.2,61,30.10,10.0,ESE,5.8,-,N/A,,Clear,120,2012-12-28 20:15:00
3:35 PM,42.8,30.2,61,30.10,10.0,ESE,4.6,-,N/A,,Clear,120,2012-12-28 20:35:00
3:55 PM,41.0,30.2,65,30.10,10.0,ESE,5.8,-,N/A,,Clear,120,2012-12-28 20:55:00
4:15 PM,41.0,30.2,65,30.10,10.0,Calm,Calm,-,N/A,,Clear,0,2012-12-28 21:15:00
4:35 PM,41.0,30.2,65,30.10,10.0,Calm,Calm,-,N/A,,Clear,0,2012-12-28 21:35:00
4:55 PM,41.0,30.2,65,30.10,10.0,Calm,Calm,-,N/A,,Scattered Clouds,0,2012-12-28 21:55:00
5:15 PM,39.2,30.2,70,30.10,10.0,Calm,Calm,-,N/A,,Scattered Clouds,0,2012-12-28 22:15:00
5:35 PM,39.2,32.0,75,30.10,10.0,Calm,Calm,-,N/A,,Scattered Clouds,0,2012-12-28 22:35:00
5:55 PM,39.2,30.2,70,30.09,10.0,Calm,Calm,-,N/A,,Mostly Cloudy,0,2012-12-28 22:55:00
6:15 PM,39.2,30.2,70,30.09,10.0,Calm,Calm,-,N/A,,Scattered Clouds,0,2012-12-28 23:15:00
6:35 PM,37.4,32.0,81,30.09,10.0,Calm,Calm,-,N/A,,Scattered Clouds,0,2012-12-28 23:35:00
6:55 PM,37.4,30.2,75,30.08,10.0,Calm,Calm,-,N/A,,Clear,0,2012-12-28 23:55:00
7:15 PM,37.4,30.2,75,30.07,10.0,ESE,4.6,-,N/A,,Clear,120,2012-12-29 00:15:00
7:35 PM,37.4,30.2,75,30.08,10.0,Calm,Calm,-,N/A,,Clear,0,2012-12-29 00:35:00
7:55 PM,37.4,30.2,75,30.09,10.0,Calm,Calm,-,N/A,,Clear,0,2012-12-29 00:55:00
8:15 PM,37.4,30.2,75,30.10,10.0,Calm,Calm,-,N/A,,Clear,0,2012-12-29 01:15:00
8:36 PM,35.6,30.2,81,30.10,10.0,Calm,Calm,-,N/A,,Clear,0,2012-12-29 01:36:00
8:55 PM,35.6,30.2,81,30.10,10.0,Calm,Calm,-,N/A,,Clear,0,2012-12-29 01:55:00
9:16 PM,35.6,30.2,81,30.10,10.0,Calm,Calm,-,N/A,,Clear,0,2012-12-29 02:16:00
9:35 PM,35.6,32.0,87,30.11,10.0,Calm,Calm,-,N/A,,Clear,0,2012-12-29 02:35:00
9:55 PM,35.6,32.0,87,30.10,10.0,Calm,Calm,-,N/A,,Clear,0,2012-12-29 02:55:00
10:15 PM,35.6,32.0,87,30.10,10.0,Calm,Calm,-,N/A,,Clear,0,2012-12-29 03:15:00
10:35 PM,35.6,30.2,81,30.10,10.0,Calm,Calm,-,N/A,,Clear,0,2012-12-29 03:35:00
10:55 PM,35.6,30.2,81,30.09,10.0,Calm,Calm,-,N/A,,Clear,0,2012-12-29 03:55:00
11:15 PM,35.6,30.2,81,30.06,10.0,Calm,Calm,-,N/A,,Clear,0,2012-12-29 04:15:00
11:35 PM,35.6,32.0,87,30.06,10.0,Calm,Calm,-,N/A,,Clear,0,2012-12-29 04:35:00
11:55 PM,35.6,32.0,87,30.07,10.0,ESE,3.5,-,N/A,,Clear,120,2012-12-29 04:55:00